[[{"header":{"parameterUnit":"m.s-1","parameterCategory":1,"la1":30.2991,"la2":30.254,"lo1":-89.0895,"lo2":-89.0444,"dy":0.0017,"dx":0.0017,"nx":28,"ny":28,"refTime":"2024-06-05T21:00:00:Z","depth":0,"parameterNumber":2,"parameterNumberName":"U-component_of_WINDS"},"data":[0,0,0,0,0,0,0,0,0,0,0,0,0,0,0,0,0,0,0,0,0,0,0,0,0,0,0,0,0,0,0,0,0,0,0,0,0,0,0,0,0,0,0,0,0,0,0,0,0,0,0,0,0,0,0,0,0,0,0.2268,0.2273,0,0.2671,0.2675,0.268,0.2885,0.2885,0.2885,0.2885,0.3296,0.3306,0.3317,0,0,0,0,0,0,0,0,0,0,0,0,0,0.1678,0.1688,0.2268,0.2273,0.2278,0.267,0.2676,0.2681,0.2885,0.2885,0.2885,0.2885,0.3292,0.3305,0.3318,0,0,0,0,0,0,0,0,0,0,0,0,0,0.1992,0.1691,0.2267,0.2427,0.2445,0.2669,0.2676,0.2683,0.2885,0.2885,0.2885,0.2885,0.3288,0.3304,0.332,0.3415,0,0,0.3369,0.3376,0,0,0,0,0,0,0,0,0.1974,0.2014,0.2398,0.2416,0.2437,0.2728,0.2619,0.2928,0.2885,0.2718,0.2885,0.2885,0.3107,0.3138,0.3213,0.3434,0.3452,0.3371,0.3381,0.3388,0.3392,0,0,0,0,0,0,0,0.1952,0.1998,0.2427,0.2404,0.2427,0.2479,0.2524,0.2678,0.2906,0.2732,0.2748,0.2793,0.3117,0.3197,0.3224,0.3458,0.337,0.3385,0.3395,0.3401,0.3783,0.3783,0,0,0,0,0,0,0.1905,0.1978,0.2415,0.2439,0.2202,0.249,0.254,0.2634,0.2905,0.2946,0.2792,0.2801,0.3169,0.3205,0.3239,0.3372,0.3387,0.3403,0.3412,0.3782,0.3783,0.3783,0,0,0,0,0,0,0.1891,0.1941,0.2398,0.2214,0.2276,0.25,0.2604,0.2642,0.2722,0.295,0.2992,0.2831,0.317,0.3216,0.3371,0.3389,0.341,0.3425,0.3782,0.3783,0.3783,0.3635,0,0,0,0,0,0,0.1873,0.1935,0.1973,0.2213,0.2285,0.2522,0.2605,0.265,0.2749,0.2764,0.2998,0.3037,0.3174,0.3346,0.3387,0.3411,0.3437,0.3781,0.3782,0.3783,0.3639,0.363,0.3623,0,0,0,0,0,0.1851,0.1914,0.1974,0.2025,0.2336,0.2523,0.2564,0.2721,0.275,0.279,0.2938,0.3029,0.338,0.336,0.3408,0.3437,0.3781,0.3782,0.3783,0.3643,0.3632,0.3623,0,0,0,0,0,0,0.1669,0.1948,0.2018,0.2159,0.2316,0.2557,0.2613,0.2704,0.2856,0.2863,0.3052,0.3103,0.3241,0.3355,0.3327,0.3546,0.359,0.36,0.3467,0.3458,0.345,0.342,0.3451,0,0,0,0,0,0.1645,0.1773,0.201,0.2113,0.2188,0.2386,0.2473,0.2581,0.2751,0.2818,0.2977,0.3138,0.3286,0.3378,0.3526,0.3657,0.3712,0.3701,0.3692,0.3685,0.3692,0.3774,0.3773,0.3787,0.3787,0.3787,0,0,0.1598,0.1766,0.1835,0.208,0.2215,0.2344,0.244,0.2572,0.2671,0.2838,0.2995,0.3117,0.331,0.3454,0.3525,0.3553,0.3701,0.3686,0.3678,0.369,0.3775,0.3773,0.3772,0.3787,0.3787,0.3787,0,0,0.1578,0.1716,0.1819,0.1952,0.2155,0.2287,0.2311,0.254,0.2628,0.2788,0.2918,0.3038,0.3286,0.342,0.3519,0.3554,0.3645,0.3597,0.3554,0.3631,0.363,0.363,0.3645,0.3648,0.3603,0.3602,0.3602,0,0.1493,0.1693,0.186,0.1986,0.2091,0.225,0.2357,0.2478,0.2717,0.2787,0.2815,0.3133,0.3274,0.3453,0.3462,0.3537,0.3572,0.3571,0.3617,0.3619,0.3621,0.3638,0.3642,0.3595,0.3596,0.3597,0.3598,0,0.158,0.1717,0.1775,0.2004,0.2117,0.2231,0.2418,0.2511,0.261,0.2739,0.2903,0.3078,0.3266,0.3316,0.3413,0.3511,0.3522,0.358,0.3629,0.361,0.3629,0.3636,0.3585,0.3588,0.359,0.3592,0,0,0.1454,0.1777,0.1796,0.1904,0.214,0.225,0.2374,0.2559,0.2637,0.2797,0.2907,0.3116,0.3173,0.3287,0.3401,0.3468,0.3488,0.352,0.3528,0.351,0.3611,0.3566,0.357,0.355,0.3552,0.3553,0.3595,0,0.1469,0.1698,0.1854,0.2023,0.2153,0.2308,0.2416,0.2574,0.2699,0.2829,0.2967,0.3113,0.3176,0.3247,0.332,0.3469,0.3511,0.3469,0.3656,0.366,0.3604,0.358,0.3533,0.3563,0.3603,0.3605,0.3606,0,0.1516,0.1674,0.1856,0.2082,0.2143,0.2237,0.2422,0.2543,0.2726,0.2813,0.2941,0.3058,0.3198,0.3233,0.3429,0.3397,0.3483,0.3568,0.3573,0.3598,0.3632,0.3605,0.3577,0.3582,0.3618,0.3617,0.3617,0,0.1409,0.1667,0.1811,0.1898,0.2164,0.2228,0.2342,0.2526,0.2628,0.279,0.2859,0.3033,0.3128,0.3261,0.3423,0.3433,0.3604,0.3652,0.3682,0.3677,0.3711,0.3707,0.3697,0.3763,0.3763,0.3762,0.3762,0,0.141,0.1515,0.1767,0.1855,0.1979,0.2158,0.2277,0.2404,0.2567,0.2684,0.2828,0.2934,0.3141,0.3274,0.3401,0.3546,0.3587,0.3663,0.3696,0.3651,0.3642,0.3711,0.3713,0.3764,0.3764,0.3763,0.3763,0,0.1311,0.1483,0.165,0.189,0.1953,0.2034,0.2241,0.2334,0.2468,0.2614,0.2659,0.2869,0.3034,0.3209,0.3431,0.3517,0.3657,0.3702,0.3595,0.3614,0.3635,0.3631,0.3671,0.3686,0.3737,0.3737,0.3736,0,0.13,0.1386,0.1636,0.1725,0.1836,0.1977,0.2084,0.2264,0.2369,0.2587,0.2653,0.2829,0.2979,0.3234,0.3407,0.358,0.3631,0.3634,0.3658,0.3612,0.3634,0.3628,0.3639,0.3625,0.3624,0.3622,0.3621,0,0.1265,0.1347,0.1494,0.1672,0.1795,0.1944,0.2098,0.2163,0.2375,0.2486,0.2656,0.2773,0.3002,0.3175,0.3369,0.3489,0.3591,0.3613,0.3629,0.3585,0.352,0.3558,0.3575,0.3611,0.3612,0.3613,0.3613,0.3614,0.1212,0.1297,0.1487,0.1647,0.1783,0.1925,0.2025,0.2173,0.2318,0.2519,0.2617,0.2788,0.2974,0.3245,0.3362,0.35,0.353,0.3553,0.3559,0.3563,0.3552,0.3497,0.3535,0.3536,0.3536,0.3537,0.3537,0,0.1186,0.1316,0.1462,0.1675,0.1802,0.1888,0.2065,0.2166,0.2314,0.2479,0.2624,0.2822,0.2992,0.318,0.3361,0.3436,0.3487,0.3477,0.3474,0.3501,0.3513,0.3482,0.3433,0.3433,0.3433,0.3433,0.3433,0.3433,0.1187,0.1335,0.144,0.1659,0.179,0.1959,0.2053,0.2186,0.2319,0.2533,0.2675,0.2797,0.2973,0.3169,0.333,0.3381,0.3442,0.3418,0.3483,0.3491,0.3499,0.3507,0.3479,0.343,0.343,0.346,0.346,0.346]},{"header":{"parameterUnit":"m.s-1","parameterCategory":1,"la1":30.2991,"la2":30.254,"lo1":-89.0895,"lo2":-89.0444,"dy":0.0017,"dx":0.0017,"nx":28,"ny":28,"refTime":"2024-06-05T21:00:00:Z","depth":0,"parameterNumber":3,"parameterNumberName":"V-component_of_WINDS"},"data":[0,0,0,0,0,0,0,0,0,0,0,0,0,0,0,0,0,0,0,0,0,0,0,0,0,0,0,0,0,0,0,0,0,0,0,0,0,0,0,0,0,0,0,0,0,0,0,0,0,0,0,0,0,0,0,0,0,0,1.2933,1.2935,0,1.309,1.3092,1.3094,1.3141,1.314,1.3139,1.3138,1.3291,1.3296,1.3301,0,0,0,0,0,0,0,0,0,0,0,0,0,1.2667,1.2671,1.2933,1.2935,1.2937,1.309,1.3092,1.3094,1.3141,1.314,1.3139,1.3138,1.329,1.3295,1.3301,0,0,0,0,0,0,0,0,0,0,0,0,0,1.2799,1.2673,1.2933,1.2979,1.2985,1.3089,1.3092,1.3095,1.3141,1.314,1.3139,1.3138,1.3288,1.3295,1.3302,1.3369,0,0,1.3324,1.3327,0,0,0,0,0,0,0,0,1.2791,1.2808,1.297,1.2976,1.2983,1.3095,1.3054,1.3186,1.3141,1.3081,1.3138,1.3137,1.3226,1.3238,1.327,1.3376,1.3383,1.3324,1.3329,1.3332,1.3334,0,0,0,0,0,0,0,1.2782,1.2802,1.2995,1.2973,1.298,1.2989,1.3007,1.3079,1.3158,1.3087,1.309,1.3109,1.3229,1.3263,1.3274,1.3385,1.3324,1.3331,1.3335,1.3338,1.3553,1.3555,0,0,0,0,0,0,1.2766,1.2794,1.299,1.3,1.2882,1.2995,1.3015,1.306,1.3158,1.3172,1.311,1.311,1.3251,1.3266,1.328,1.3365,1.3332,1.3339,1.3343,1.3552,1.3554,1.3555,0,0,0,0,0,0,1.276,1.2783,1.2984,1.2898,1.2924,1.3001,1.3051,1.3064,1.3098,1.3175,1.3189,1.313,1.3251,1.327,1.3347,1.3371,1.3342,1.3348,1.355,1.3552,1.3554,1.3535,0,0,0,0,0,0,1.2752,1.2781,1.2809,1.2898,1.2929,1.3051,1.3053,1.3067,1.3111,1.3113,1.3198,1.3211,1.3252,1.3336,1.3354,1.338,1.3354,1.3548,1.3551,1.3554,1.3534,1.3537,1.3539,0,0,0,0,0,1.2743,1.2796,1.281,1.2834,1.2966,1.3052,1.3069,1.3117,1.3112,1.314,1.319,1.3208,1.3365,1.3344,1.3364,1.3393,1.3547,1.355,1.3553,1.3533,1.3536,1.3539,0,0,0,0,0,0,1.2705,1.2809,1.2826,1.291,1.2972,1.306,1.3097,1.3119,1.3182,1.3181,1.3236,1.3255,1.3328,1.3368,1.3342,1.3462,1.3456,1.3464,1.3434,1.3437,1.3439,1.3428,1.336,0,0,0,0,0,1.2707,1.2771,1.2857,1.2922,1.2953,1.3019,1.3059,1.3091,1.3156,1.3182,1.3237,1.3298,1.3361,1.3401,1.3464,1.354,1.3558,1.357,1.3572,1.3573,1.3579,1.3621,1.3627,1.3566,1.3566,1.3565,0,0,1.271,1.2775,1.2811,1.2917,1.2969,1.3031,1.3041,1.3107,1.3153,1.3191,1.3269,1.3311,1.3382,1.3459,1.3496,1.3495,1.36,1.3577,1.3578,1.3583,1.3625,1.3631,1.3636,1.3568,1.3567,1.3567,0,0,1.275,1.2805,1.2867,1.2919,1.2998,1.3042,1.3056,1.3141,1.3172,1.3251,1.328,1.3334,1.3442,1.3491,1.353,1.3587,1.3606,1.3606,1.3617,1.3658,1.3662,1.3667,1.3686,1.3693,1.3611,1.3611,1.3611,0,1.2744,1.2842,1.2894,1.2959,1.3004,1.3043,1.3104,1.3151,1.3246,1.3274,1.3272,1.3408,1.3459,1.3548,1.3561,1.3592,1.3608,1.3596,1.3658,1.3663,1.3668,1.3687,1.3694,1.361,1.361,1.3611,1.3611,0,1.283,1.2897,1.2937,1.303,1.3079,1.3141,1.32,1.3243,1.327,1.3313,1.3391,1.3453,1.3529,1.3552,1.3578,1.3644,1.3641,1.3648,1.3643,1.3672,1.3691,1.3699,1.361,1.361,1.361,1.361,0,0,1.285,1.2972,1.2986,1.3028,1.3118,1.317,1.3232,1.3309,1.3344,1.3407,1.346,1.355,1.3556,1.3601,1.3632,1.3668,1.3708,1.367,1.3673,1.3675,1.3783,1.3778,1.3786,1.3721,1.3722,1.3724,1.3777,0,1.2901,1.3018,1.3067,1.3161,1.3222,1.326,1.3315,1.3374,1.3416,1.3472,1.3516,1.3579,1.3584,1.3611,1.3648,1.3695,1.373,1.3692,1.3768,1.377,1.375,1.3796,1.379,1.3838,1.3785,1.3786,1.3787,0,1.2976,1.3042,1.3143,1.3225,1.3253,1.3302,1.3375,1.3429,1.3496,1.3523,1.3573,1.3603,1.3667,1.3658,1.3746,1.3719,1.3753,1.378,1.3783,1.3792,1.3781,1.3805,1.3854,1.3861,1.3799,1.3798,1.3798,0,1.298,1.3094,1.3169,1.3204,1.3302,1.3335,1.3377,1.3444,1.3486,1.3549,1.3577,1.3645,1.3682,1.3733,1.3779,1.3768,1.3863,1.3858,1.3886,1.3884,1.3904,1.3902,1.3959,1.3926,1.3926,1.3925,1.3925,0,1.3031,1.3091,1.3173,1.3219,1.3286,1.334,1.3404,1.3448,1.3507,1.356,1.3595,1.3644,1.3703,1.3758,1.3794,1.3861,1.3877,1.3899,1.3908,1.3897,1.3894,1.3919,1.3917,1.3927,1.3927,1.3927,1.3926,0,1.3048,1.3105,1.3189,1.3276,1.3299,1.3344,1.3417,1.3461,1.3504,1.3571,1.359,1.3656,1.3723,1.3774,1.386,1.3884,1.3955,1.3965,1.3933,1.3938,1.3963,1.396,1.4038,1.4051,1.4009,1.4009,1.4009,0,1.3077,1.3125,1.3216,1.3256,1.3298,1.3361,1.3405,1.3459,1.3503,1.3583,1.3617,1.3687,1.3746,1.385,1.3904,1.3969,1.3981,1.4003,1.399,1.3977,1.398,1.3977,1.3981,1.4005,1.4005,1.4005,1.4005,0,1.3122,1.3149,1.3212,1.3286,1.3338,1.3398,1.3458,1.3487,1.3551,1.3598,1.3668,1.3714,1.3803,1.3871,1.3942,1.3981,1.4003,1.4009,1.4019,1.4007,1.3987,1.3998,1.3937,1.4007,1.4007,1.4007,1.4007,1.4007,1.3146,1.319,1.3262,1.3331,1.3382,1.3438,1.3484,1.3533,1.3594,1.3672,1.3699,1.3771,1.3835,1.3933,1.3973,1.4028,1.4029,1.4043,1.4047,1.405,1.4048,1.3979,1.4041,1.4041,1.4041,1.4041,1.4041,0,1.3193,1.3242,1.3305,1.3389,1.3443,1.3462,1.3529,1.3572,1.3636,1.3695,1.3753,1.3832,1.3898,1.3957,1.4025,1.4058,1.4069,1.4073,1.4071,1.408,1.4044,1.4029,1.4063,1.4063,1.4063,1.4063,1.4063,1.4063,1.3224,1.3299,1.3333,1.3433,1.348,1.3553,1.359,1.364,1.3688,1.3776,1.3832,1.3871,1.393,1.4002,1.4062,1.4078,1.4101,1.4102,1.412,1.4085,1.4083,1.408,1.4066,1.4107,1.4107,1.4152,1.4152,1.4152]}]]